Regional Weather Roundup
Issued by NWS

Home | Current Version | Previous Version | Text Only | Print | Product List | Glossary On
Versions: 1 2 3 4 5 6 7 8 9 10 11 12 13 14 15 16 17 18 19 20 21 22 23 24 25 26 27 28 29 30 31 32 33 34 35 36 37 38 39 40 41 42 43 44 45 46 47 48 49 50
000
ASUS43 KLMK 251310
RWRKY
KENTUCKY REGIONAL WEATHER ROUNDUP
NATIONAL WEATHER SERVICE LOUISVILLE KY
800 AM EST THU DEC 25 2014

NOTE "FAIR" INDICATES FEW OR NO CLOUDS BELOW 12,000 FEET
WITH NO SIGNIFICANT WEATHER AND/OR OBSTRUCTIONS TO VISIBILITY.

KYZ001>023-026-027-061>063-070>075-251400-
WESTERN AND SOUTH CENTRAL KENTUCKY

CITY           SKY/WX    TMP DP  RH WIND       PRES   REMARKS
PADUCAH        PTCLDY    35  30  82 S5        30.08R WCI  31
HENDERSON      CLOUDY    37  32  81 SW7       30.07R WCI  32
OWENSBORO      CLOUDY    37  34  89 SW7       30.09R WCI  31
HOPKINSVILLE   CLOUDY    39  34  82 SW7       30.11R WCI  34
BOWLING GREEN  CLOUDY    39  34  82 SW5       30.12R
GLASGOW        CLOUDY    37  34  86 SW5       30.11R WCI  34
$$

KYZ024-025-028>034-038-045-046-053-251400-
NORTH CENTRAL KENTUCKY

CITY           SKY/WX    TMP DP  RH WIND       PRES   REMARKS
LOUISVILLE/SDF CLOUDY    39  32  76 SW8       30.06R WCI  33
LOUISVILLE/LOU CLOUDY    38  32  79 SW6       30.06R WCI  33
FORT KNOX      CLOUDY    38  33  82 SW6       30.05R WCI  33
$$

KYZ035>037-039>044-047>052-055>060-089>105-251400-
NORTHEAST KENTUCKY

CITY           SKY/WX    TMP DP  RH WIND       PRES   REMARKS
LEXINGTON      CLOUDY    37  32  82 W9        30.05R WCI  30
COVINGTON      CLOUDY    37  30  75 W8        30.00R WCI  31
FRANKFORT      CLOUDY    37  33  85 W6        30.05R WCI  32
$$

KYZ054-064>069-076>088-106>120-251400-
SOUTHEAST KENTUCKY

CITY           SKY/WX    TMP DP  RH WIND       PRES   REMARKS
JACKSON        CLOUDY    37  34  89 W6        30.04R WCI  32
LONDON         CLOUDY    40  33  76 SW5       30.08R
SOMERSET       CLOUDY    36  32  87 W9        30.11R WCI  29
MIDDLESBORO    CLOUDY    40  33  77 CALM      30.10R
MONTICELLO     CLOUDY    39  36  89 W7        30.13R WCI  34
$$



USA.gov is the U.S. government's official web portal to all federal, state and local government web resources and services.